Location: �sterby
(56.0830°N, 10.1397°E)
Time: 02:33:32
(UTC+00:00)

Daily predictions for brighter satellites

Satellite Brightness Start Highest point End
(mag) Time Altitude Azimuth Time Altitude Azimuth Time Altitude Azimuth
Cosmos 1980 Rocket 4.3 01:12:46 22° NE 01:12:46 22° NE 01:16:12 10° ENE
Resurs 1-4 Rocket 4.4 01:08:28 10° NNE 01:09:54 19° NNE 01:09:54 19° NNE
SL-16 R/B 4.3 01:18:45 22° NNE 01:18:45 22° NNE 01:20:51 10° NNE
Cosmos 2219 Rocket 4.4 01:25:06 18° N 01:25:06 18° N 01:27:50 10° NNE
CZ-2D R/B 4.3 01:27:28 10° NNE 01:28:58 20° NNE 01:28:58 20° NNE
Cosmos 2322 Rocket 4.3 01:41:46 19° N 01:42:48 19° NNE 01:46:52 10° ENE
CENTAUR R/B 4.0 02:02:59 27° SE 02:03:52 28° ESE 02:09:40 10° ENE
SL-16 R/B 4.1 02:17:12 18° NNW 02:19:43 24° NNE 02:24:18 10° ENE
ARIANE 5 R/B 3.6 02:21:58 10° NNE 02:25:19 41° NE 02:25:19 41° NE
Cosmos 2333 Rocket 4.2 02:26:58 17° NNW 02:28:22 18° N 02:32:17 10° NE
Cosmos 1867 4.4 02:33:43 45° NNE 02:33:43 45° NNE 02:37:49 10° NE
Cosmos 1697 Rocket 3.1 02:35:00 59° E 02:35:00 59° E 02:39:49 10° SE
Cosmos 2237 Rocket 4.1 02:34:16 19° NNW 02:34:29 19° NNW 02:38:28 10° NNE
ADEOS II 3.4 02:32:32 10° N 02:35:25 32° N 02:35:25 32° N
Cosmos 2344 3.9 02:37:40 47° S 02:39:33 58° SE 02:47:40 10° NE
Lacrosse 4 Rocket 3.5 02:42:02 22° ESE 02:42:02 22° ESE 02:44:50 10° ENE
USA 238 DEB 4.0 02:41:03 52° SSE 02:42:02 57° SE 02:48:50 10° NE
USA 238 4.0 02:41:08 52° SSE 02:42:09 57° SE 02:48:57 10° NE
Cosmos 2360 Rocket 4.2 02:41:04 15° NNW 02:43:59 21° NNE 02:48:16 10° ENE
NOSS 3-2 (A) 3.6 02:44:26 59° SSE 02:44:53 61° SE 02:51:34 10° NE
Cosmos 1943 4.1 02:48:46 37° NNW 02:48:46 37° NNW 02:53:02 10° NNE
Meteor 1-21 4.4 02:50:33 65° N 02:50:33 65° N 02:55:22 10° NNE
Lacrosse 5 rocket 4.0 02:50:07 11° SE 02:50:07 11° SE 02:51:00 10° ESE
Cosmos 967 Rocket 4.3 02:52:39 76° NW 02:53:12 89° NE 02:59:30 10° SE
Resurs 1-4 Rocket 3.9 02:48:51 10° N 02:50:59 20° NNW 02:50:59 20° NNW
Tsikada Rocket 4.1 02:54:23 60° NW 02:54:23 60° NW 02:59:49 10° N
Cosmos 1980 Rocket 2.6 02:54:35 34° NNW 02:56:53 59° NE 03:02:25 10° SE
USA 234 3.1 02:51:48 10° ENE 02:58:22 77° SSE 02:59:22 65° SW
SL-16 R/B 3.8 03:00:37 21° NNW 03:00:50 22° NNW 03:05:09 10° NNE
Cosmos 1048 Rocket 4.1 03:02:50 71° N 03:02:50 71° N 03:07:44 10° NNE
ADEOS Rocket 2.7 02:58:27 10° SSE 03:03:56 88° ENE 03:09:44 10° NNW
Cosmos 1025 Rocket 3.7 03:05:19 53° NE 03:05:19 53° NE 03:08:49 10° NNE
Cosmos 494 Rocket 4.0 03:04:22 81° SE 03:04:25 81° ESE 03:09:43 10° NNE
Cosmos 2180 Rocket 4.4 02:58:08 10° NNW 03:04:28 90° ENE 03:10:41 10° S
Cosmos 2228 4.2 03:00:43 10° N 03:04:52 42° ENE 03:09:03 10° SE
Spot 4 Rocket 3.9 03:02:08 10° NNE 03:07:10 84° N 03:07:10 84° N
Cosmos 2219 Rocket 4.3 03:06:49 13° NNW 03:09:49 19° NNE 03:13:50 10° ENE
Geosat 3.9 03:05:24 10° SE 03:10:27 85° NE 03:10:58 72° NNW
CZ-2D R/B 4.0 03:08:20 10° N 03:10:17 17° NNW 03:10:17 17° NNW
Cosmos 2360 4.1 03:13:18 55° NW 03:14:39 86° SW 03:20:21 10° SSE
Cosmos 1606 Rocket 4.5 03:10:58 10° N 03:15:20 49° ENE 03:19:42 10° SSE
GP-B 3.8 03:18:13 43° N 03:18:13 43° N 03:21:16 10° N
Cosmos 1400 Rocket 4.3 03:13:42 10° N 03:17:25 36° ENE 03:21:03 10° SE
IDEFIX/ARIANE 42P 2.7 03:14:12 10° NNE 03:18:53 58° NW 03:18:53 58° NW
KORONAS-FOTON 4.2 03:25:50 64° ENE 03:25:50 64° ENE 03:29:30 10° NNE
Intercosmos 24 4.2 03:22:23 10° N 03:26:37 61° ENE 03:30:09 10° SSE
Cosmos 2278 3.6 03:24:13 29° NNW 03:27:19 87° ENE 03:32:59 10° SE
Cosmos 2322 Rocket 3.5 03:23:36 12° NNW 03:28:31 37° NE 03:33:45 10° ESE
MSX 3.7 03:24:45 10° NNE 03:30:30 71° WNW 03:32:03 49° SW
COSMO-SKYMED 1 4.0 03:27:47 10° SE 03:31:48 39° ENE 03:35:52 10° N
Cosmos 220 Rocket 4.2 03:32:31 61° S 03:32:31 61° S 03:36:15 10° SSE
Cosmos 1300 3.4 03:28:04 10° N 03:31:51 53° ENE 03:35:35 10° SSE
ALOS 3.8 03:28:01 10° NNE 03:32:21 36° E 03:36:39 10° SSE
Cosmos 2279 Rocket 4.1 03:29:54 10° NNW 03:35:51 49° W 03:36:37 47° WSW
Cosmos 1992 Rocket 3.8 03:34:01 29° NNW 03:36:44 80° WSW 03:41:57 10° SSE
In-Cosmos 22 4.0 03:35:42 44° SSW 03:37:27 75° WNW 03:42:59 10° NNE
CZ-4B R/B 2.5 03:34:50 10° SSE 03:37:08 39° SE 03:37:08 39° SE
Cosmos 1833 Rocket 3.4 03:33:51 13° S 03:38:45 52° ESE 03:44:14 10° NE
CZ-2C R/B 3.5 03:37:50 10° N 03:40:50 43° NNW 03:40:50 43° NNW
Cosmos 1674 2.7 03:42:36 66° N 03:42:36 66° N 03:45:57 10° N
Cosmos 1626 3.0 03:39:55 13° SSE 03:43:03 48° E 03:46:39 10° NNE
Cosmos 1689 Rocket 3.7 03:43:25 10° SE 03:46:06 34° ENE 03:48:17 14° N
NOSS 3-2 (C) 3.5 03:43:21 35° SW 03:46:07 81° SE 03:53:03 10° NE
Cosmos 1536 Rocket 3.5 03:48:18 59° WSW 03:48:49 65° WNW 03:53:19 10° N
Cosmos 2058 Rocket 3.8 03:45:17 10° N 03:49:44 55° ENE 03:54:08 10° SSE
Cosmos 2369 3.8 03:49:30 39° WNW 03:51:06 51° WSW 03:56:33 10° S
CENTAUR R/B 2.7 03:50:12 31° SW 03:53:37 86° SE 04:01:12 10° NE
Cosmos 1484 Rocket 3.7 03:51:14 10° NNE 03:55:02 49° E 03:58:45 10° S
CBERS 1 LM4 rocket 4.5 03:50:42 10° NNE 03:55:43 78° ESE 04:00:32 10° SSW
Meteor 1-24 Rocket 4.4 03:53:06 10° S 03:58:39 57° E 04:04:26 10° NNE
Cosmos 2082 Rocket 3.2 03:56:22 10° S 04:01:41 46° ESE 04:07:03 10° NE
Cosmos 1461 4.3 03:57:49 11° SSW 04:01:53 41° SE 04:06:21 10° NE
PSLV R/B 3.4 03:59:13 10° N 04:03:29 66° WNW 04:05:32 30° SW
SL-16 R/B 2.7 03:59:19 10° NNW 04:04:59 61° NE 04:10:36 10° SE
CZ-2C R/B 2.3 04:00:04 10° NNE 04:05:05 68° WNW 04:08:51 17° SSW
ARIANE 5 R/B 3.5 04:01:35 10° N 04:05:39 27° NW 04:05:39 27° NW
CREW DRAGON DEMO-1 DEB 4.4 04:08:42 24° S 04:08:42 24° S 04:10:45 10° SE
USA 290 3.8 04:07:15 10° S 04:10:15 36° ESE 04:13:18 10° NE
ISS -1.7 04:09:06 17° S 04:10:25 21° SSE 04:13:03 10° ESE
Cosmos 2251 Rocket 4.3 04:07:43 10° S 04:12:56 55° ESE 04:18:09 10° NE
COSMOS 2428 4.5 04:08:17 10° NNW 04:13:05 26° NNE 04:17:51 10° E
Cosmos 2333 Rocket 3.9 04:09:38 10° NNW 04:14:33 28° NNE 04:19:26 10° E
ADEOS II 3.8 04:13:22 10° N 04:16:21 16° NW 04:16:21 16° NW
Cosmos 1697 Rocket 3.4 04:16:50 29° W 04:17:48 31° WSW 04:22:41 10° SSW
SKYMED 2 3.5 04:15:26 10° SSE 04:19:47 87° WSW 04:24:10 10° NNW
Meteor 1-31 Rocket 3.2 04:15:53 10° NNE 04:19:49 66° ESE 04:23:44 10° S
Lacrosse 4 Rocket 1.3 04:18:22 35° WSW 04:19:56 66° NW 04:24:01 10° NE
Cosmos 1455 3.6 04:16:20 10° N 04:20:02 41° ENE 04:23:43 10° SE
Cosmos 2237 Rocket 4.2 04:16:35 10° NNW 04:20:42 20° NNE 04:24:48 10° ENE
PSLV R/B 3.9 04:18:16 10° SSE 04:22:29 89° E 04:26:45 10° NNW
CZ-4B R/B 4.1 04:20:38 10° NNE 04:24:29 45° E 04:28:30 10° S
COSMOS 2406 3.1 04:21:37 15° SW 04:26:22 73° NW 04:32:04 10° NNE
NOSS 5 (C) 4.3 04:25:46 37° WSW 04:26:55 68° NW 04:29:59 10° NE
FENGYUN 3A 3.7 04:21:36 10° NNE 04:27:06 89° W 04:32:32 10° SSW
Lacrosse 5 rocket 2.0 04:25:46 18° SSW 04:28:09 43° SSE 04:31:49 10° ENE
Cosmos 2360 Rocket 3.1 04:23:52 10° NNW 04:29:21 48° NE 04:34:48 10° ESE
Meteor 2-5 Rocket 3.7 04:24:24 10° SSW 04:30:09 77° WNW 04:36:04 10° NNE
PAYLOAD A 4.4 04:26:45 10° N 04:31:31 42° WNW 04:35:51 13° SW
DNEPR-1 R/B 3.9 04:27:13 16° NW 04:31:44 86° NE 04:36:24 10° SE
USA 238 DEB 3.8 04:28:30 22° WSW 04:33:03 63° NNW 04:40:08 10° NE
USA 238 3.8 04:28:35 22° WSW 04:33:09 64° NNW 04:40:14 10° NE
NOSS 3-2 (A) 3.8 04:31:50 22° W 04:35:54 59° NNW 04:43:01 10° ENE
Cosmos 1726 Rocket 3.9 04:33:03 10° NNW 04:37:16 42° W 04:41:28 10° SSW
SAR-Lupe-4 4.1 04:36:23 10° SSW 04:39:43 37° W 04:43:06 10° NNW
Cosmos 1980 Rocket 2.7 04:36:25 14° NW 04:40:42 36° WSW 04:45:44 10° S
USA 234 3.3 04:34:57 10° E 04:41:32 83° N 04:46:42 18° W
ERS-2 4.3 04:38:56 10° SW 04:39:17 12° SW 04:39:17 12° SW
ATLAS 3B R/B 2.9 04:35:19 10° SW 04:41:50 70° SE 04:48:32 10° NE
Cosmos 2228 3.8 04:38:31 10° NNW 04:42:19 30° W 04:46:08 10° SSW
Cosmos 1025 Rocket 4.4 04:42:14 20° WNW 04:42:31 20° WNW 04:45:51 10° N
Cosmos 2084 Rocket 4.1 04:40:57 16° NW 04:44:14 53° NNE 04:48:36 10° ESE
SL-16 R/B 4.1 04:43:10 10° NW 04:47:05 19° N 04:51:00 10° NE
ATLAS CENTAUR R/B 4.4 04:45:46 10° SSE 04:47:46 14° ESE 04:49:43 10° E
ADEOS 3.5 04:42:57 10° NNE 04:48:09 65° WNW 04:53:19 10° SSW
Meteor 2-13 Rocket 4.4 04:42:26 10° SSW 04:48:32 63° WNW 04:54:39 10° N
Cosmos 1092 Rocket 3.9 04:43:19 10° SSW 04:49:29 68° WNW 04:55:46 10° N
ADEOS Rocket 3.9 04:46:29 10° SW 04:50:26 20° W 04:54:29 10° NW
CZ-2C R/B 4.0 04:45:15 10° SE 04:50:29 42° ENE 04:55:45 10° N
Aureole 3 3.8 04:47:13 10° NNW 04:50:57 44° W 04:55:35 10° SSW
Cosmos 1606 Rocket 4.5 04:49:12 10° NNW 04:52:58 27° W 04:56:42 10° SW
Cosmos 1400 Rocket 3.5 04:50:20 10° NNW 04:53:49 29° W 04:57:14 10° SSW
Nadezhda 4 Rocket 4.2 04:48:05 10° SW 04:53:54 45° WNW 04:59:50 10° N
CZ-4B R/B 3.9 04:49:43 10° N 04:53:59 63° WNW 04:58:01 10° SSW
Cosmos 2344 3.8 04:47:42 16° W 04:54:02 63° NNW 05:03:11 10° ENE
Cosmos 2219 Rocket 3.5 04:50:09 10° NNW 04:55:25 37° NE 05:00:37 10° ESE
IDEFIX/ARIANE 42P 4.1 04:54:54 10° N 04:58:02 16° NW 04:59:40 14° WNW
Cosmos 1607 4.1 04:55:37 10° NW 05:02:09 84° NE 05:08:40 10° SE
GRACE-FO 1 4.5 05:00:36 10° S 05:04:15 76° W 05:07:55 10° N
GRACE-FO 2 4.5 05:00:59 10° S 05:04:38 75° W 05:08:18 10° N
Cosmos 1763 Rocket 4.4 05:00:05 10° NNW 05:05:02 47° NE 05:09:56 10° SE
S3M 4.0 04:59:15 10° NNW 05:05:34 85° W 05:11:56 10° S
Cosmos 1300 4.0 05:04:24 10° NW 05:07:09 19° W 05:09:55 10° SW
ARGOS Delta rocket 4.2 05:01:57 10° N 05:07:14 61° WNW 05:12:38 10° SSW
COSMO-SKYMED 1 3.2 05:04:03 10° SSW 05:08:02 34° W 05:12:03 10° NNW
ALOS 2.7 05:05:28 10° N 05:09:52 42° WNW 05:14:15 10° SW
CZ-4B R/B 3.4 05:09:08 10° WSW 05:10:16 13° WSW 05:10:16 13° WSW
Meteor 2-10 Rocket 3.6 05:07:12 10° NNW 05:12:04 51° W 05:16:57 10° S
Cosmos 2292 Rocket 3.9 05:08:52 10° S 05:12:09 57° E 05:16:20 10° NNE
Cosmos 2322 Rocket 2.2 05:07:20 10° NW 05:13:00 69° WSW 05:18:37 10° SSE
Cosmos 1655 Rocket 4.4 05:07:04 10° S 05:13:19 70° E 05:19:41 10° NNE
Cosmos 1689 Rocket 3.5 05:15:13 10° SW 05:17:22 19° W 05:19:33 10° NW
Cosmos 1626 3.4 05:15:42 10° WSW 05:18:34 21° WNW 05:21:27 10° NNW
SL-14 R/B 4.3 05:15:18 10° SW 05:18:45 27° WNW 05:22:14 10° N
deb Chang Zheng 4 4.1 05:16:00 10° N 05:19:56 37° WNW 05:23:51 10° SW
Cosmos 2237 4.2 05:16:04 10° NW 05:21:48 84° WSW 05:27:30 10° SSE
METEOR-M 4.4 05:17:41 10° N 05:22:47 46° WNW 05:27:51 10° SW
Cosmos 1833 Rocket 3.1 05:17:25 10° WSW 05:22:51 45° NW 05:28:17 10° NNE
MOS 1 Rocket 3.0 05:18:50 10° S 05:23:06 71° WSW 05:27:28 10° NNW
H-2A R/B 3.0 05:20:35 10° NNE 05:25:02 68° ESE 05:29:18 10° S
Cosmos 1315 Rocket 3.4 05:21:51 10° NNW 05:25:40 37° W 05:29:29 10° SSW
SJ-12 4.2 05:21:48 10° N 05:25:46 45° WNW 05:29:42 10° SW
Cosmos 2084 3.9 05:22:39 10° SW 05:26:59 69° SE 05:31:25 10° NE
SL-19 R/B 4.4 05:24:49 10° N 05:27:21 28° WNW 05:29:51 10° SW
Cosmos 2058 Rocket 4.2 05:23:47 10° NNW 05:27:26 24° W 05:31:02 10° SW
Cosmos 1484 Rocket 3.9 05:26:04 10° N 05:29:13 24° WNW 05:32:18 10° WSW
CZ-4B R/B 4.4 05:26:04 10° NNE 05:31:17 48° E 05:36:24 10° S
H-2A R/B 2.7 05:28:06 10° NNE 05:31:56 79° WNW 05:35:46 10° SSW
Cosmos 2322 4.1 05:26:36 10° NNW 05:32:18 66° NE 05:37:58 10° SE
Elektron 1 4.0 05:29:40 10° SW 05:32:30 73° SSE 05:36:01 10° ENE
Okean 1-7 Rocket 4.0 05:29:06 10° SW 05:33:25 42° WNW 05:37:43 10° N
SL-27 R/B 3.6 05:30:51 10° S 05:34:22 50° ESE 05:37:53 10° NE
Cosmos 1553 Rocket 4.3 05:28:59 10° NNW 05:34:44 43° W 05:40:24 10° SSW
Cosmos 1758 Rocket 4.4 05:31:44 10° S 05:36:09 58° E 05:40:33 10° NNE
NOSS 3-2 (C) 4.0 05:31:26 10° W 05:37:33 52° NNW 05:44:42 10° ENE
Meteor PRIRODA 4.1 05:34:58 10° N 05:38:25 39° WNW 05:41:51 10° SW
Cosmos 1461 3.4 05:36:21 10° WSW 05:40:57 56° NNW 05:45:41 10° NE
Meteor 1-24 Rocket 4.4 05:36:54 10° SW 05:42:07 35° WNW 05:47:32 10° N
